This is the latest recevied weather packets stored in our database for station/object YF9UAG-17. If no packets are shown the sender has not sent any weather packets the latest 10 day(s).
| Time | Temp. | Humidity | Pressure | Rain* | Wind** | Luminosity | Snow |
|---|---|---|---|---|---|---|---|
| 1787725337 | 30° C | 48% | 1031.3 hPa | - | - | - | - |
| 1787724733 | 29.44° C | 48% | 1031.6 hPa | - | - | - | - |
| 1787724130 | 29.44° C | 46% | 1031.6 hPa | - | - | - | - |
| 1787723527 | 29.44° C | 45% | 1031.7 hPa | - | - | - | - |
| 1787722924 | 29.44° C | 46% | 1031.7 hPa | - | - | - | - |
| 1787722321 | 29.44° C | 44% | 1031.8 hPa | - | - | - | - |
| 1787721718 | 29.44° C | 44% | 1032 hPa | - | - | - | - |
| 1787721115 | 29.44° C | 44% | 1032.3 hPa | - | - | - | - |
| 1787720512 | 30° C | 46% | 1032.4 hPa | - | - | - | - |
| 1787719909 | 28.89° C | 48% | 1032.5 hPa | - | - | - | - |
| 1787719305 | 28.33° C | 50% | 1032.7 hPa | - | - | - | - |
| 1787718702 | 28.89° C | 48% | 1032.9 hPa | - | - | - | - |
| 1787718099 | 27.78° C | 49% | 1033 hPa | - | - | - | - |
| 1787717496 | 27.78° C | 51% | 1033.2 hPa | - | - | - | - |
| 1787716892 | 27.78° C | 52% | 1033.4 hPa | - | - | - | - |
| 1787716290 | 27.78° C | 53% | 1033.5 hPa | - | - | - | - |
| 1787715685 | 27.78° C | 51% | 1033.7 hPa | - | - | - | - |
| 1787715082 | 27.78° C | 53% | 1033.9 hPa | - | - | - | - |
| 1787714479 | 27.78° C | 52% | 1034 hPa | - | - | - | - |
| 1787713876 | 27.78° C | 54% | 1034.2 hPa | - | - | - | - |
| 1787713273 | 27.78° C | 55% | 1034.3 hPa | - | - | - | - |
| 1787712670 | 28.33° C | 54% | 1034.4 hPa | - | - | - | - |
| 1787712066 | 27.78° C | 56% | 1034.6 hPa | - | - | - | - |
| 1787711463 | 27.78° C | 56% | 1034.7 hPa | - | - | - | - |
| 1787710860 | 27.78° C | 57% | 1034.9 hPa | - | - | - | - |
* Rain since midnight (hover to see other rain measurements)
** Current wind speed in m/s (hover to see current wind gust speed)